Location: Bidwell Hollow
(37.7387°N, 90.1707°W)
Time: 23:45:54
(UTC+00:00)

Transit 2A - Pass Details

Date: 13 May 2026
Orbit: 595 x 949 km, 66.7° (Epoch: 6 June)

Event Time Altitude Azimuth Distance (km) Brightness Sun altitude
Rises 06:53:27 0° 336° (NNW) 3,157 9.9 -32.3°
Reaches altitude 10° 06:56:00 10° 343° (NNW) 2,174 9.0 -32.2°
Enters shadow 06:59:16 36° 10° (N) 1,069 7.1 -32.0°
